Погода Нижний Новгород

Погода Нижний Новгород : погода сейчас, прогноз погоды и архив. Всё, что Вы хотите узнать о погоде Нижний Новгород!

Хотите узнать прогноз погоды в Нижнем Новгороде? Тогда Вам сюда: Погода в Нижнем Новгороде

Поиск расширенной информации на нашем сайте:

Другие новости

Новости СМИ2

Главная страница сайта

Новости сайта

03.07.2017

Напоминаем, что на нашем специализированном сайте Метеоцентр.Азия вы можете получить высокодетализированные автоматические прогнозы погоды по пунктам России, СНГ и мира в авиационном формате (включающие направление и скорость ветра, видимость, явления погоды, количество и форму облачности, нижнюю и верхнюю границу облачности).

Рекомендуем: Пуллер макси для собак: puller maxi игрушка для собак пуллер макси.

Погода Нижний Новгород - сегодня

Время (UTC), дата Ветер
(°,м/с) 
Видим.   Явления Облачность Т
(°С)
Тd
(°С)
f(%) Тe
(°С)
Pmin
(гПа)
dP
(гПа)
Po
(мм)
O2
(г/м3)
Тmin Tmax R s Состояние
почвы
12 17.01.18 110 (В) 2-4{04}  10 км  {снег}  4/3 300 м верхняя 
[St|Ci fib]
-10.3 -12.3 85 -12  1023.7  -1.3  752  316           
15 17.01.18 120 (ЮВ) 1-3{05}  10 км    10/10 300 м 
[St]
-10 -11.3 90 -10  1022.5  -1.1  751  315    -9.5  0.4     
18 17.01.18 140 (ЮВ) 1-3{05}  4000 м  слаб. снег  10/10 200 м 
[Frnb]
-9.4 -10.6 91 -9  1021.5  -1  751  314           
21 17.01.18 120 (ЮВ) 2-4{05}  4000 м  слаб. снег  10/10 200 м 
[Frnb]
-10.5 -11.8 90 -12  1021.2  -0.3  750  316           
00 18.01.18 120 (ЮВ) 2-4{05}  4000 м  слаб. снег  10/10 200 м 
[Frnb]
-10.6 -11.9 90 -12  1020.6  -0.6  750  316           
03 18.01.18 110 (В) 2-5{06}  10 км  в посл. час снег  9/9 300 м 
[St]
-11.6 -13.6 85 -14  1020.1  -0.6  750  317  -11.6    0.3  21  равномерный
сухой снег
100% 
06 18.01.18 120 (ЮВ) 2-4{07}  10 км  {снег}  8/0 верхняя 
[Ci fib]
-12.4 -14.4 85 -14  1020.5  0.3  750  318  -12.4         
09 18.01.18 130 (ЮВ) 3-9{09}  10 км    8/0 средняя, верхняя 
[Ac trans|Ci fib]
-11 -13 85 -14  1020.3  750  316           
12 18.01.18 130 (ЮВ) 3-6{09}  10 км    10/10 300 м 
[Sc]
-10.2 -12.2 85 -13  1020.1  -0.2  750  315           
15 18.01.18 130 (ЮВ) 3-7{07}  10 км    10/10 300 м 
[Sc]
-11 -14.6 75 -14  1021.1  0.9  750  316    -9.8       
18 18.01.18 150 (ЮВ) 3-7{07}  10 км    10/10 300 м 
[Sc]
-10.6 -15 70 -14  1021.1  0.1  750  316           
21 18.01.18 130 (ЮВ) 3-7{07}  10 км    10/10 300 м 
[Sc]
-10.6 -14.2 75 -14  1021.5  0.4  751  316           
00 19.01.18 130 (ЮВ) 3-6{08}  10 км    6/0 верхняя 
[Ci fib]
-13.2 -16.7 75 -17  1022.5  0.7  751  319           
03 19.01.18 130 (ЮВ) 2-4{06}  10 км    ясно 
-14.8 -19.9 65 -17  1023.3  0.8  752  322  -14.8      21  равномерный
сухой снег
100% 
06 19.01.18 130 (ЮВ) 2-5{05}  10 км    4/0 верхняя 
[Ci fib]
-15.7 -20.8 65 -18  1024.5  0.9  752  323  -15.7         
09 19.01.18 130 (ЮВ) 2-4{06}  10 км    3/0 средняя, верхняя 
[Ac trans|Ci fib]
-12.2 -21.7 45 -14  1024.9  0.7  753  319           
12 19.01.18 100 (В) 2-4{06}  10 км    3/0 верхняя 
[Ci fib]
-12.2 -20.5 50 -14  1025.9  754  319           
15 19.01.18 110 (В) 2-4{07}  10 км    ясно 
-14.6 -21.7 55 -17  1026.7  0.7  754  323    -11       
18 19.01.18 100 (В) 2-5{07}  10 км    ясно 
-16.3 -20.5 70 -19  1026.9  754  325           
21 19.01.18 100 (В) 2-4{07}  10 км    ясно 
-17.2 -20.6 75 -20  1027.3  0.2  754  326           
00 20.01.18 100 (В) 3-6{09}  10 км    ясно 
-18.2 -22.3 70 -22  1026.4  -0.9  754  327           
03 20.01.18 100 (В) 4-7{09}  10 км    ясно 
-17.6 -20.2 80 -23  1024.8  -1.6  753  326  -18.4      21  равномерный
сухой снег
100% 
06 20.01.18 100 (В) 4-7{09}  4000 м  слаб. снег  10/6 300 м средняя 
[Sc|As op]
-15.7 -18.4 80 -21  1023.3  -1.2  752  323           
09 20.01.18 120 (ЮВ) 4-10{11}  10 км  позёмок{снег}  10/10 300 м 
[Sc]
-12.7 -15.4 80 -17  1021.7  -1.3  751  319           
12 20.01.18 110 (В) 5-9{10}  4000 м  метель{снег}  10/10 200 м 
[St]
-12.3 -15 80 -17  1020  -1.7  749  318           
Время (UTC), дата Ветер
(°,м/с) 
Видим.   Явления Облачность Т
(°С)
Тd
(°С)
f(%) Тe
(°С)
Pmin
(гПа)
dP
(гПа)
Po
(мм)
O2
(г/м3)
Тmin Tmax R s Состояние
почвы

Для получения пояснительной информации подведите курсор к названию столбца.

ПОГОДА Нижний Новгород - архив

Всё, что Вы хотите узнать о погоде Нижний Новгород - удобно и подробно!

Выберите нужную дату (начиная с 1 января 2015* года) и нажмите кнопку "Найти".
Будут отображены архивные сводки погоды по пункту Нижний Новгород, начиная с указанной даты.


Отображать данные в формате CSV (для использования в таблицах Excel)


Внимание! Наш архив погоды предназначен исключительно для личного некоммерческого использования в познавательных целях. Если Вам необходимы официальные справки о состоянии погоды (для производственных, юридических, коммерческих и т.п. целей), обращайтесь в органы Росгидромета.

*Примечание: данная дата относится к архиву по метеостанциям СССР (Россия, СНГ, Балтия).
Архив по метеостанциям Зарубежной Европы и Азии (кроме Китая) хранится 10 дней, по другим регионам земного шара (Китай, Африка, Америка, Австралия, Океания) - 1 день.

Нижний Новгород - район местоположения метеостанции


Название, широта, долгота, высота метеостанции:
Нижний Новгород (Мыза) 56.3°ш. 44°д. 157 м над ур. моря [Российская Федерация]

Дополнительная информация

В oтличие oт бoльшинства пoгoдных сайтoв мы публикуем пoдрoбную метеoинфoрмацию в детальнoм прoфессиoнальнoм фoрмате.

Характеристики температуры и влажнoсти вoздуха измеряются на высoте 2 м в тени вдали oт зданий и деревьев.
Скoрoсть ветра измеряется на высoте 10 м (на урoвне рoста челoвека скoрoсть ветра ниже в 1.5-2 раза). Если метеoстанция нахoдится в гoрoде или в лесу, тo скoрoсть ветра занижена на 2-4 м/с пo сравнению с oткрытым местoм. Скoрoсть ветра над акватoриями крупных рек и oзёр, а также на вершинах хoлмoв на 2-5 м/с выше, чем в oбычных услoвиях.
Атмoсфернoе давление в разных тoчках местнoсти мoжет значительнo oтличаться oт давления на метеoстанции, в зависимoсти oт услoвий рельефа (при пoдъёме на 10 м давление пoнижается примернo на 1 мм рт.ст.).